GFSSW_850_dewp_057.txt.gz
Dewpoint
-14 -15 -15 -16 -16 -16 -17 -17 -18 -18 -18 -19 -19 -19 -20 -20 -19 -18 -14 -9 -5 -4 -3 -9 -6 4 10 11 11 10 10 10 9 9 7 5 5 8 9 12 12 12 11 12 15
-14 -15 -15 -16 -16 -17 -17 -17 -18 -18 -18 -19 -19 -19 -20 -20 -17 -17 -14 -12 -10 -5 -4 -8 -8 -5 -1 5 5 5 7 8 6 7 7 4 4 5 9 13 14 13 13 15 15
-14 -15 -15 -16 -16 -17 -17 -18 -18 -18 -19 -19 -19 -20 -20 -20 -9 -3 -13 -16 -9 -6 -6 -6 -10 -12 -9 -9 -6 3 3 3 2 4 5 5 4 4 6 11 13 13 14 15 15
-14 -15 -15 -16 -16 -17 -17 -18 -18 -18 -19 -19 -19 -19 -20 -20 -0 0 -3 -5 -7 -3 -3 -5 -13 -10 -7 -5 -6 -3 -5 -3 0 1 6 5 4 5 3 4 11 10 13 15 15
-14 -15 -15 -16 -17 -17 -18 -18 -18 -18 -19 -19 -19 -19 -20 -20 -9 -4 -2 -8 -11 -6 -7 -13 -16 -10 -5 -5 -6 -3 -5 -6 -6 -4 3 4 6 6 6 8 11 12 14 15 15
-14 -15 -15 -16 -17 -17 -18 -18 -19 -19 -19 -19 -19 -20 -17 -16 -6 -1 -3 -5 -14 -20 -20 -19 -15 -6 -5 -7 -6 -7 -7 -6 -1 5 6 5 7 6 7 11 13 13 13 14 14
-14 -15 -15 -16 -17 -17 -18 -18 -19 -19 -19 -19 -19 -19 -18 -21 -18 -4 -2 -7 -6 -9 -10 -10 -10 -8 -7 -6 -8 -8 0 0 0 3 7 6 6 7 9 13 13 14 13 14 14
-14 -14 -15 -16 -17 -18 -18 -19 -19 -20 -20 -20 -19 -19 -18 -20 -18 -12 -8 -11 -8 -6 -6 -8 -7 -10 -7 -9 -10 -3 1 1 -1 0 5 3 3 4 11 13 14 14 14 15 15
-14 -14 -15 -15 -16 -18 -19 -19 -20 -20 -20 -20 -19 -17 -14 -14 -14 -13 -13 -12 -13 -11 -9 -9 -9 -9 -10 -10 -9 -6 -2 2 2 -0 1 1 1 0 7 13 14 14 15 15 15
-14 -14 -15 -15 -16 -17 -19 -19 -19 -12 -5 -10 -11 -11 -18 -15 -10 -9 -10 -11 -12 -13 -12 -9 -10 -8 -9 -10 -9 -5 -0 1 2 1 1 1 -0 2 6 11 13 14 15 15 15
-16 -15 -15 -15 -16 -16 -18 -6 -6 -5 -8 -7 -6 -12 -13 -13 -14 -11 -10 -12 -11 -16 -10 -9 -7 -7 -8 -9 -10 -9 -6 -4 -5 -4 -0 -1 0 0 5 6 10 13 15 15 13
-18 -17 -16 -16 -16 -16 -16 -8 -7 -6 -6 -10 -12 -11 -8 -8 -9 -11 -11 -12 -11 -9 -9 -9 -8 -10 -8 -8 -8 -8 -7 -7 -7 -3 0 0 3 8 5 5 8 13 15 15 14
-21 -20 -18 -16 -16 -16 -16 -7 -9 -8 -7 -9 -13 -16 -18 -15 -11 -11 -10 -12 -12 -10 -8 -8 -9 -10 -8 -8 -7 -8 -7 -7 -5 1 -0 -0 1 7 9 11 6 13 14 15 13
-22 -22 -21 -18 -16 -15 -9 -8 -9 -8 -6 -9 -9 -14 -17 -18 -13 -12 -11 -12 -11 -12 -9 -8 -9 -9 -8 -9 -9 -9 -8 -4 1 1 -1 -2 0 5 10 10 15 15 15 15 15
-21 -22 -23 -22 -19 -16 -8 -8 -9 -8 -11 -14 -10 -15 -16 -16 -18 -15 -13 -12 -12 -10 -10 -8 -9 -10 -9 -10 -12 -10 -10 -1 -4 -4 -6 -5 -3 3 9 11 13 17 17 17 16
-21 -22 -23 -22 -21 -17 -8 -8 -8 -5 -6 -8 -10 -15 -15 -16 -16 -16 -15 -14 -14 -12 -10 -9 -10 -10 -10 -11 -12 -13 -12 -8 -4 -5 -4 -5 1 2 10 9 13 17 17 17 16
-22 -22 -23 -23 -20 -10 -7 -9 -6 -2 -9 -10 -12 -13 -15 -15 -16 -15 -15 -14 -13 -11 -10 -9 -9 -10 -10 -9 -11 -12 -10 -7 -8 -3 -4 -2 3 7 11 16 15 12 10 9 6
-22 -22 -23 -24 -24 -14 -9 -7 -4 -7 -6 -9 -10 -10 -11 -15 -15 -15 -13 -12 -13 -10 -6 -6 -6 -9 -10 -10 -9 -12 -12 -7 -8 -4 -3 -2 1 15 14 15 10 8 6 5 3
-23 -22 -23 -25 -25 -22 -7 -4 -5 -5 -6 -7 -9 -8 -8 -9 -13 -13 -13 -13 -13 -10 -10 -5 -6 -8 -8 -9 -10 -8 -7 -10 -6 -4 -4 -1 13 16 13 12 10 9 7 8 12
-21 -18 -20 -24 -19 -18 -5 -4 -5 -6 -9 -9 -7 -8 -7 -8 -7 -6 -12 -12 -12 -10 -12 -9 -8 -10 -10 -10 -10 -10 -9 -6 -5 -3 -3 -2 8 16 16 12 12 12 9 8 15
-16 -2 -6 -9 -15 -7 -4 -4 -6 -10 -10 -8 -7 -6 -8 -8 -7 -8 -6 -7 -8 -9 -10 -9 -9 -8 -9 -8 -8 -9 -9 -4 -5 -3 -1 1 5 5 16 14 13 12 7 7 8
-11 1 -5 -7 -8 -6 -6 -6 -9 -9 -8 -8 -7 -6 -7 -8 -9 -9 -6 -5 -5 -6 -9 -9 -8 -6 -7 -9 -7 -10 -10 -7 -3 -5 2 3 4 8 12 12 12 9 4 4 9
-10 -5 -3 -8 -5 -6 -7 -8 -8 -10 -11 -8 -7 -8 -10 -9 -11 -8 -7 -7 -4 0 -1 -7 -6 -6 -7 -7 -9 -3 -4 -3 -2 -2 4 4 3 9 9 11 10 10 8 8 12
-6 5 0 -3 -7 -9 -8 -7 -8 -10 -9 -9 -8 -8 -9 -8 -7 -9 -6 -6 -7 -1 1 -3 -3 -6 -5 -6 -4 -1 -2 -2 -1 1 2 1 5 11 11 11 10 9 8 8 9
-5 0 2 0 -4 -5 -7 -7 -6 -8 -7 -8 -8 -8 -8 -8 -9 -7 -3 -4 -6 -3 0 -2 -6 -1 -3 -3 -3 -3 -2 -1 -1 -1 1 0 9 9 9 10 10 8 6 5 6
-3 2 -1 -0 -1 -1 -2 -6 -6 -7 -6 -5 -8 -8 -8 -7 -7 -2 -0 -2 -4 -3 -2 3 4 1 -3 -2 0 -2 -3 -2 -0 2 3 9 10 8 9 10 9 9 6 5 5
2 0 1 0 -0 -1 -2 -3 -3 -3 -5 -4 -3 -3 0 0 -1 -2 -1 -2 -3 -2 -1 4 3 6 4 2 0 -4 -3 -2 0 3 6 9 7 8 10 10 9 8 7 8 12

GFSSW_850_dewp_060.txt.gz
Dewpoint
-14 -15 -15 -16 -16 -16 -17 -17 -17 -18 -18 -19 -19 -19 -20 -20 -20 -19 -15 -10 -6 -5 -5 -7 1 10 11 13 12 10 11 9 8 8 6 5 5 11 10 13 11 12 13 11 14
-14 -15 -15 -16 -16 -17 -17 -17 -18 -18 -18 -19 -19 -20 -20 -20 -18 -15 -17 -13 -10 -7 -3 -6 -6 2 7 6 8 7 8 6 5 6 6 5 4 10 11 13 13 13 13 12 14
-14 -15 -15 -16 -16 -17 -17 -18 -18 -18 -19 -19 -19 -19 -20 -20 -7 -1 -5 -17 -12 -8 -6 -8 -8 -8 -1 -4 -2 5 3 2 1 1 4 6 4 5 11 14 13 13 13 13 14
-14 -15 -15 -16 -16 -17 -17 -18 -18 -18 -19 -19 -19 -19 -20 -20 0 -0 -3 -16 -15 -6 -4 -5 -9 -10 -9 -5 -5 -2 -1 -1 -4 -4 2 5 5 5 10 9 9 12 10 12 13
-14 -15 -15 -16 -16 -17 -17 -18 -18 -18 -19 -19 -19 -19 -20 -19 -15 -3 -2 -8 -7 -4 -2 -4 -13 -13 -6 -5 -6 -5 -5 -6 -5 0 -1 5 5 5 6 5 8 11 13 12 12
-14 -15 -15 -16 -17 -17 -17 -18 -18 -19 -19 -19 -19 -19 -19 -16 -18 -3 -2 -4 -7 -16 -19 -19 -18 -6 -6 -6 -6 -7 -7 -6 -1 4 5 6 7 6 6 9 12 12 15 14 12
-14 -14 -15 -16 -17 -17 -18 -18 -18 -19 -19 -19 -20 -19 -19 -20 -21 -9 -3 -3 -6 -10 -10 -10 -10 -9 -8 -6 -7 -8 -4 -1 -2 2 6 6 7 7 6 10 13 14 15 15 13
-14 -14 -15 -16 -17 -18 -18 -18 -19 -19 -19 -20 -20 -20 -19 -20 -20 -16 -11 -8 -9 -7 -8 -6 -7 -8 -9 -8 -11 -5 -1 -0 -3 1 3 3 4 4 10 12 14 14 15 15 14
-14 -14 -15 -15 -16 -17 -18 -19 -19 -20 -19 -18 -19 -19 -18 -17 -15 -12 -13 -13 -12 -11 -12 -10 -8 -10 -10 -11 -12 -8 -4 -1 1 -0 1 3 1 0 8 13 14 14 15 14 14
-15 -15 -15 -15 -16 -17 -18 -18 -18 -11 -6 -6 -11 -13 -18 -16 -11 -9 -10 -10 -11 -11 -13 -9 -9 -8 -8 -9 -9 -7 -6 -5 -2 -4 -1 2 3 1 7 14 14 15 15 15 14
-17 -16 -15 -15 -15 -16 -17 -7 -7 -7 -5 -7 -6 -11 -13 -13 -13 -12 -10 -11 -10 -13 -15 -10 -8 -7 -8 -9 -9 -9 -8 -6 -7 -8 -4 -1 -0 0 3 10 14 15 15 15 14
-19 -18 -17 -16 -16 -16 -16 -7 -7 -8 -6 -10 -11 -10 -9 -9 -8 -13 -10 -12 -11 -10 -9 -9 -8 -9 -9 -8 -8 -8 -7 -7 -8 -4 -1 0 1 8 5 7 9 14 15 15 15
-21 -21 -20 -18 -17 -16 -15 -6 -8 -8 -6 -9 -13 -15 -15 -15 -11 -13 -11 -11 -12 -10 -9 -8 -9 -10 -9 -8 -7 -8 -7 -7 -8 -2 -1 -3 -3 4 8 11 12 15 15 15 15
-21 -22 -22 -20 -17 -16 -13 -7 -9 -8 -9 -10 -11 -13 -15 -15 -13 -16 -12 -11 -12 -11 -9 -9 -10 -9 -8 -8 -8 -8 -9 -9 -6 1 -1 -3 -2 -1 9 15 17 17 16 16 16
-21 -22 -23 -23 -22 -20 -10 -7 -9 -7 -11 -14 -12 -13 -14 -15 -18 -14 -13 -11 -11 -11 -11 -10 -9 -10 -9 -9 -11 -10 -11 -8 -2 -3 -6 -5 -3 -3 9 16 17 16 13 10 9
-21 -22 -23 -22 -22 -20 -16 -8 -8 -6 -7 -12 -9 -15 -15 -15 -16 -15 -13 -12 -12 -12 -11 -11 -11 -10 -10 -10 -11 -12 -12 -9 -5 -5 -5 -6 -0 0 10 15 16 12 10 6 3
-22 -22 -23 -23 -22 -12 -10 -9 -5 -4 -10 -10 -11 -10 -14 -15 -16 -15 -14 -14 -11 -11 -11 -12 -10 -10 -10 -9 -11 -12 -11 -7 -8 -6 -4 -2 2 2 12 11 15 12 10 7 3
-23 -23 -23 -24 -24 -23 -13 -7 -4 -8 -7 -8 -9 -9 -10 -12 -15 -15 -14 -13 -14 -12 -9 -11 -10 -9 -10 -10 -8 -11 -11 -7 -9 -6 -5 -3 0 7 15 15 14 13 11 9 6
-23 -23 -23 -24 -24 -23 -11 -5 -3 -6 -6 -7 -9 -8 -8 -10 -12 -13 -14 -13 -13 -11 -11 -6 -7 -9 -9 -10 -10 -8 -7 -10 -6 -5 -4 -2 13 13 14 12 11 11 10 9 8
-23 -21 -12 -14 -22 -23 -6 -4 -7 -7 -9 -10 -7 -8 -6 -8 -9 -7 -12 -9 -12 -11 -13 -11 -10 -11 -11 -9 -10 -9 -9 -6 -5 -5 -4 -2 9 12 16 14 11 11 10 9 8
-19 -9 -4 -15 -12 -11 -5 -5 -6 -8 -9 -8 -7 -7 -7 -7 -8 -8 -7 -7 -6 -7 -12 -10 -10 -10 -9 -9 -8 -9 -8 -5 -5 -4 -2 -1 3 5 15 14 11 10 8 8 15
-14 -3 -4 -10 -9 -6 -5 -6 -8 -8 -9 -9 -7 -7 -6 -8 -9 -10 -6 -6 -6 -4 -9 -10 -9 -9 -10 -10 -8 -10 -10 -6 -4 -5 1 0 2 4 10 13 12 10 10 9 11
-12 -6 -6 -5 -5 -6 -7 -8 -8 -11 -11 -11 -6 -7 -8 -9 -9 -10 -8 -7 -7 1 1 -8 -7 -7 -8 -10 -8 -3 -6 -5 -4 -1 4 2 1 9 9 12 13 12 11 10 8
-8 4 -1 -4 -5 -9 -8 -6 -7 -10 -9 -11 -9 -8 -9 -9 -8 -9 -6 -7 -6 -2 -2 -5 -5 -8 -7 -9 -6 -0 -1 -2 -2 1 1 1 -0 2 10 11 12 12 11 10 10
-6 -1 2 -2 -3 -5 -7 -6 -6 -6 -8 -8 -8 -8 -8 -8 -8 -8 -2 -3 -7 -4 0 -4 -1 -1 -3 -5 -3 -3 -2 -1 -2 -1 0 -1 2 2 7 11 12 11 9 9 9
-3 3 1 -1 0 -2 -2 -3 -5 -5 -6 -7 -7 -7 -8 -8 -9 -5 -1 -2 -4 -4 -2 2 3 1 -2 -1 1 -2 -3 -1 -1 0 2 4 5 5 6 7 10 10 9 8 7
1 2 2 -0 0 -2 -2 -3 -3 -3 -5 -7 -3 -1 -4 -3 -3 -2 -2 -2 -3 -3 -2 1 1 4 2 4 -1 -2 -5 -2 1 2 5 5 3 4 7 10 8 8 7 6 6

GFSSW_850_dewp_063.txt.gz
Dewpoint
-14 -15 -15 -16 -16 -17 -17 -17 -18 -18 -18 -19 -19 -20 -20 -20 -20 -20 -17 -12 -8 -6 -5 -2 6 10 13 13 12 11 9 4 1 3 1 6 8 10 11 12 12 12 13 12 12
-14 -15 -15 -16 -16 -17 -17 -18 -18 -18 -19 -19 -19 -20 -20 -21 -17 -8 -14 -15 -10 -5 -4 -3 -1 5 11 9 9 8 7 1 -1 -0 0 3 5 9 11 12 13 14 12 12 11
-14 -15 -15 -16 -16 -17 -17 -17 -18 -18 -19 -19 -19 -19 -20 -20 -6 -0 -3 -15 -12 -10 -4 -7 -7 -1 3 1 3 6 1 -3 -4 -2 -1 2 4 8 9 13 11 13 13 11 11
-14 -14 -15 -16 -16 -17 -17 -17 -18 -18 -19 -19 -19 -19 -20 -20 1 -3 -5 -10 -12 -6 -4 -7 -6 -7 -8 -6 -5 0 -2 -1 -3 -6 -2 3 4 5 7 7 10 10 10 9 11
-14 -15 -15 -16 -16 -17 -17 -18 -18 -18 -18 -19 -19 -19 -20 -20 -18 -5 -4 -11 -9 -6 -4 -4 -10 -10 -10 -6 -5 -5 -6 -6 -7 0 2 4 4 4 6 7 5 11 10 9 10
-14 -15 -15 -16 -16 -17 -17 -18 -18 -18 -19 -19 -19 -20 -19 -16 -19 -12 -1 -5 -7 -7 -8 -8 -16 -13 -6 -5 -6 -6 -7 -7 -3 4 5 4 5 5 7 10 9 11 12 10 11
-14 -14 -15 -16 -16 -17 -18 -18 -18 -19 -19 -19 -19 -20 -19 -20 -21 -19 -2 -2 -5 -10 -15 -12 -11 -11 -8 -7 -6 -8 -7 -7 -1 2 6 6 6 7 9 13 14 15 15 14 11
-14 -14 -15 -15 -16 -17 -18 -18 -19 -19 -19 -19 -20 -20 -20 -20 -20 -20 -10 -7 -4 -6 -6 -7 -7 -8 -7 -8 -10 -8 -4 -3 -3 -0 5 5 3 2 11 13 14 16 16 15 12
-14 -14 -14 -15 -16 -17 -18 -19 -19 -20 -19 -17 -15 -18 -18 -18 -17 -18 -17 -15 -11 -9 -9 -8 -7 -8 -9 -9 -7 -7 -6 -3 -3 -4 1 -0 -4 -2 11 12 14 15 16 16 13
-15 -15 -15 -15 -15 -16 -17 -18 -17 -16 -10 -8 -8 -11 -17 -16 -10 -9 -9 -10 -10 -10 -12 -9 -8 -7 -8 -8 -1 -6 -8 -8 -5 -5 -7 -7 -4 -4 5 12 13 14 15 16 14
-18 -17 -16 -16 -15 -16 -17 -16 -9 -9 -5 -8 -7 -12 -16 -13 -11 -11 -9 -10 -9 -13 -12 -9 -8 -6 -7 -6 -7 -7 -6 -5 -6 -8 -6 -3 -0 -0 5 10 13 14 16 15 15
-21 -20 -19 -17 -16 -16 -16 -7 -8 -9 -7 -12 -11 -10 -10 -9 -8 -11 -10 -11 -10 -9 -8 -7 -7 -8 -8 -8 -7 -6 -6 -7 -7 -4 -4 -2 -1 9 10 10 10 14 16 15 16
-21 -22 -22 -20 -19 -16 -15 -7 -8 -8 -5 -9 -12 -14 -14 -14 -10 -12 -11 -11 -10 -8 -8 -9 -10 -9 -9 -8 -7 -8 -6 -6 -7 -5 -1 -2 -2 6 12 14 12 14 15 16 16
-21 -22 -22 -22 -18 -18 -13 -7 -8 -8 -7 -12 -13 -13 -13 -13 -12 -16 -14 -11 -11 -10 -8 -9 -10 -9 -8 -8 -8 -6 -8 -8 -8 -5 -6 -2 -8 5 15 16 15 15 15 15 16
-21 -21 -22 -23 -22 -21 -11 -11 -8 -7 -9 -13 -14 -13 -13 -14 -17 -15 -14 -11 -10 -10 -9 -10 -8 -8 -7 -9 -8 -8 -9 -6 -4 -1 -3 -4 -5 0 11 15 16 16 15 15 15
-20 -22 -22 -22 -23 -20 -19 -13 -7 -5 -8 -13 -10 -14 -14 -13 -15 -14 -11 -11 -10 -10 -9 -10 -10 -10 -11 -10 -10 -10 -9 -6 -4 -5 -6 -2 -1 -2 7 12 15 15 15 15 15
-20 -22 -23 -23 -23 -22 -13 -10 -4 -5 -10 -12 -10 -10 -10 -14 -14 -14 -12 -9 -9 -6 -6 -9 -10 -11 -10 -10 -9 -10 -7 -5 -6 -7 -7 1 1 0 7 10 11 14 13 11 12
-21 -22 -23 -23 -23 -24 -16 -6 -1 -6 -7 -10 -9 -10 -8 -10 -14 -14 -11 -10 -12 -9 -7 -7 -8 -11 -11 -10 -9 -7 -6 -6 -3 -6 -7 0 -1 -5 10 14 15 13 14 12 11
-21 -22 -23 -21 -22 -23 -11 -3 -4 -4 -7 -8 -10 -8 -7 -9 -10 -11 -12 -11 -11 -9 -9 -6 -8 -10 -9 -9 -8 -5 -4 -8 -2 -1 -4 -4 3 7 12 14 14 14 14 13 12
-22 -20 -10 -6 -16 -21 -8 -4 -5 -9 -8 -10 -7 -7 -5 -6 -8 -7 -10 -8 -11 -11 -10 -7 -8 -11 -10 -9 -8 -6 -7 -4 -3 2 -0 -1 4 0 10 13 14 14 13 13 12
-20 -10 -2 -11 -14 -12 -9 -5 -6 -7 -7 -9 -6 -8 -7 -6 -7 -8 -7 -6 -4 -7 -10 -9 -7 -9 -7 -6 -7 -6 -6 -3 -4 -1 -4 -3 -2 5 9 12 14 13 12 12 10
-15 -7 -3 -11 -9 -6 -6 -5 -7 -9 -8 -9 -8 -9 -11 -10 -6 -8 -6 -5 -4 -4 -6 -8 -6 -6 -10 -8 -8 -6 -4 -1 -5 3 2 1 -6 -1 4 9 13 12 12 11 9
-14 -7 -5 -4 -7 -6 -6 -8 -8 -10 -9 -10 -8 -7 -8 -6 -4 -7 -7 -7 -5 -0 -0 -5 -3 -5 -4 -7 -5 -4 -5 -3 1 3 6 1 -4 6 8 9 13 12 12 12 9
-8 4 -2 -6 -4 -6 -5 -4 -5 -8 -9 -11 -12 -9 -6 -6 -5 -5 -6 -7 -5 -2 -1 -4 -1 -1 -6 -4 -4 0 -2 -3 0 2 4 0 1 2 5 9 10 14 13 12 11
-5 -1 3 -1 -3 -3 -4 -4 -4 -4 -6 -8 -7 -9 -7 -3 -5 -5 -2 -4 -7 -3 2 1 4 2 -1 -3 -2 -2 -1 -1 1 2 -0 2 3 4 6 8 9 11 14 12 11
0 4 3 0 1 0 -1 0 -2 -3 -4 -4 -4 -6 -7 -4 -4 -4 -1 -1 -3 -3 1 3 7 5 2 -0 1 -2 -2 -1 -0 0 2 4 4 7 6 7 8 10 12 12 11
-2 2 3 1 1 -1 -2 -2 -2 -3 -3 -6 -6 -3 -5 -7 -7 -2 -1 -0 -0 0 2 5 5 6 0 4 1 -0 -1 -2 2 5 7 4 8 11 11 11 9 9 9 10 11

GFSSW_850_dewp_069.txt.gz
Dewpoint
-15 -15 -16 -16 -16 -17 -17 -17 -18 -18 -18 -19 -19 -19 -20 -20 -21 -20 -10 -8 -4 -7 -4 8 12 11 11 10 6 6 7 -2 -3 -2 -2 -4 0 3 5 8 9 9 9 10 12
-15 -16 -16 -16 -17 -17 -17 -18 -18 -18 -18 -19 -19 -19 -19 -20 -21 -7 -7 -12 -16 -11 0 9 9 9 8 3 1 1 1 -3 -5 -5 -4 -5 -3 0 5 6 9 10 10 12 12
-15 -16 -16 -16 -17 -17 -17 -18 -18 -18 -18 -19 -19 -19 -20 -20 -11 -2 -3 -6 -16 -10 6 7 3 6 4 -1 -2 -1 -0 -4 -5 -5 -5 -4 -3 -2 3 5 7 10 10 12 13
-16 -16 -16 -17 -17 -17 -18 -18 -18 -18 -18 -19 -19 -19 -20 -20 -3 2 -3 -6 -14 -8 6 5 1 3 1 -2 -3 -2 -3 -3 -5 -5 -5 -2 -3 -2 -0 2 5 8 11 11 13
-15 -16 -17 -17 -17 -17 -18 -18 -18 -18 -18 -19 -19 -19 -19 -3 -13 -10 -3 -9 -12 3 4 3 0 0 -0 -3 -3 -2 -3 -4 -5 -5 -1 -1 -1 -1 1 2 6 9 11 11 12
-14 -14 -15 -17 -18 -18 -18 -18 -18 -19 -19 -19 -19 -19 -8 -12 -5 -13 -3 -13 0 1 0 -2 -3 -3 -5 -5 -4 -4 -3 -4 -5 -4 -1 -1 -3 -1 4 4 7 9 10 11 12
-13 -13 -14 -15 -16 -18 -19 -19 -19 -19 -19 -19 -19 -19 -9 -14 -11 1 -1 -2 2 0 -3 -5 -5 -7 -6 -4 -6 -6 -4 -4 -5 -5 -4 -4 -4 4 3 6 8 9 10 11 11
-13 -12 -13 -14 -15 -16 -18 -19 -19 -19 -19 -19 -19 -18 -8 -15 -12 -1 4 3 2 -2 -6 -10 -10 -9 -7 -6 -5 -5 -6 -4 -6 -5 -5 -5 -3 -3 1 6 9 9 9 11 12
-19 -15 -13 -12 -14 -15 -16 -18 -20 -20 -20 -19 -14 -2 -12 -14 -15 -11 -3 -1 -2 -6 -6 -8 -9 -9 -10 -9 -8 -6 -3 -5 -5 -6 -6 -5 -4 -6 -2 4 8 9 9 11 13
-22 -22 -19 -15 -13 -14 -16 -17 -21 -21 -16 -16 -10 -6 -11 -14 -16 -15 -13 -9 -8 -9 -9 -8 -10 -9 -10 -10 -7 -8 -5 -5 -5 -7 -7 -6 -5 -7 -3 0 5 9 10 11 12
-20 -21 -23 -21 -16 -14 -16 -14 -8 -0 -2 -11 -9 -11 -14 -15 -11 -11 -12 -12 -11 -12 -9 -10 -9 -9 -9 -10 -10 -9 -8 -5 -5 -8 -7 -7 -4 -6 -3 -2 2 9 11 11 11
-19 -18 -20 -23 -20 -16 -14 -8 -7 -8 -8 -10 -12 -12 -10 -10 -11 -12 -12 -10 -10 -8 -11 -11 -9 -11 -12 -10 -9 -8 -8 -8 -9 -10 -9 -7 -5 -6 -3 1 1 7 9 10 11
-18 -18 -13 -23 -22 -10 -11 -7 -6 -9 -7 -14 -14 -14 -15 -14 -13 -13 -11 -11 -9 -8 -10 -10 -12 -12 -12 -9 -9 -10 -8 -8 -8 -10 -10 -7 -4 -5 -4 4 5 4 7 9 11
-18 -18 -18 -18 -11 -13 -8 -5 -10 -7 -7 -14 -14 -13 -13 -15 -14 -14 -14 -11 -10 -8 -9 -10 -12 -12 -12 -11 -12 -10 -11 -11 -10 -9 -8 -9 -3 -3 -4 0 4 5 5 8 10
-18 -19 -18 -15 -23 -10 -11 -11 -10 -5 -6 -15 -16 -14 -14 -14 -14 -14 -15 -13 -9 -8 -9 -9 -10 -10 -10 -12 -14 -12 -12 -10 -9 -8 -8 -9 -4 -6 -3 -2 -1 2 7 8 10
-18 -19 -19 -9 -9 -9 -10 -10 -8 -6 -6 -13 -15 -14 -13 -12 -12 -14 -14 -15 -12 -9 -9 -9 -11 -11 -11 -12 -15 -13 -11 -9 -9 -8 -7 -7 -5 -4 -3 -1 -3 4 8 10 11
-18 -19 -19 -19 -13 -10 -10 -10 -6 -5 -11 -11 -14 -15 -15 -13 -11 -11 -11 -11 -10 -7 -6 -8 -9 -11 -12 -11 -12 -11 -9 -6 -4 -4 -6 -8 -6 -5 -8 -8 -3 -0 9 11 12
-18 -20 -19 -20 -8 -8 -9 -10 -3 -6 -8 -13 -14 -15 -14 -15 -14 -11 -9 -9 -10 -10 -8 -6 -5 -9 -10 -10 -9 -10 -9 -7 -1 -3 -5 -5 -3 -6 -9 -9 -4 7 8 12 12
-19 -11 -9 -5 -5 -5 -9 -8 -5 -6 -9 -11 -12 -13 -12 -14 -13 -12 -12 -10 -10 -9 -6 -6 -6 -10 -11 -11 -10 -9 -7 -10 -7 -6 -5 -5 -7 -8 -8 -8 -7 6 9 12 12
-18 -7 -8 -2 -2 -5 -11 -7 -8 -10 -10 -10 -8 -11 -11 -13 -11 -11 -11 -13 -13 -14 -12 -9 -5 -10 -10 -11 -12 -11 -11 -7 -7 -1 0 -5 -5 -6 -5 -6 -2 6 8 11 10
-12 -11 -0 -1 -0 -7 -12 -11 -10 -12 -9 -8 -9 -10 -11 -10 -9 -9 -11 -12 -13 -14 -13 -11 -8 -8 -11 -10 -10 -10 -9 -9 -8 -7 -4 -3 -5 -3 -6 -5 -1 6 8 12 11
-8 -10 -1 -4 -5 -11 -13 -14 -13 -12 -12 -10 -10 -10 -9 -9 -9 -8 -9 -9 -8 -11 -11 -11 -10 -6 -8 -11 -11 -11 -8 -8 -5 -2 -5 -3 -5 -10 -9 -1 2 5 8 11 12
-7 -12 -3 -5 -5 -8 -12 -14 -15 -12 -11 -11 -10 -11 -12 -10 -7 -9 -7 -8 -6 -6 -6 -10 -9 -6 -6 -9 -11 -9 -9 -8 -7 -5 -2 -1 -1 -3 -2 2 7 7 10 12 11
-6 -7 -4 -4 -7 -5 -6 -9 -12 -15 -13 -13 -11 -12 -11 -10 -9 -6 -6 -9 -8 -5 -5 -0 -6 -6 -7 -6 -9 -7 -9 -9 -8 -3 -4 -5 -6 1 5 7 7 8 12 13 10
-4 -6 1 0 -5 -7 -8 -6 -4 -6 -9 -8 -8 -11 -9 -7 -8 -7 -9 -8 -9 -7 -2 -3 -0 -4 -6 -8 -5 -7 -10 -10 -8 -7 -5 -0 9 11 9 9 8 9 12 13 12
-2 -0 1 -0 1 0 -2 -2 -1 -2 -3 -4 -5 -8 -9 -7 -7 -7 -9 -7 -6 -7 -5 -2 2 2 -2 -8 -7 -8 -9 -9 -9 -9 -8 -8 7 3 8 9 9 9 9 11 13
-8 -7 -0 -1 -1 0 -2 -3 -2 -3 -2 -4 -5 -6 -6 -7 -9 -12 -11 -8 -5 -3 -3 -1 1 3 -1 -5 -7 -5 -8 -9 -8 -8 -7 4 9 7 9 12 12 11 12 12 10

GFSSW_850_dewp_072.txt.gz
Dewpoint
-16 -16 -16 -16 -17 -17 -17 -18 -18 -18 -18 -19 -19 -19 -20 -20 -21 -20 -8 -7 -4 -3 -5 1 10 11 9 9 8 4 5 4 -4 -3 -4 -5 -2 1 2 7 8 8 8 11 12
-16 -16 -16 -17 -17 -17 -17 -18 -18 -18 -18 -19 -19 -19 -20 -20 -21 -16 -13 -7 -10 -9 -8 8 8 8 7 7 2 -0 2 -1 -5 -5 -5 -5 -5 -3 2 9 9 9 11 12 12
-15 -16 -16 -17 -17 -17 -18 -18 -18 -18 -19 -19 -19 -19 -20 -20 -13 -8 -5 -6 -7 -17 -4 6 6 3 5 3 -1 -2 -1 -3 -5 -6 -6 -6 -3 -3 -0 8 11 10 11 12 13
-15 -16 -16 -17 -17 -17 -18 -18 -18 -18 -19 -19 -19 -19 -19 -19 -3 4 0 -5 -7 -16 -2 5 5 2 2 2 -3 -2 -3 -3 -4 -6 -5 -3 -4 -3 -1 2 7 10 11 12 12
-14 -14 -15 -16 -17 -18 -18 -18 -18 -18 -19 -19 -19 -19 -19 -8 -6 -1 -8 -3 -8 -15 5 5 4 1 0 -2 -4 -3 -4 -3 -4 -5 -5 -3 -2 -0 -3 2 3 10 10 12 12
-11 -12 -14 -15 -16 -17 -19 -19 -19 -19 -19 -19 -19 -19 -15 -8 -5 -6 -13 -3 -12 -5 4 3 3 -1 -2 -4 -4 -5 -5 -4 -4 -4 -5 -2 -4 -1 3 3 5 10 10 11 12
-13 -11 -11 -12 -14 -16 -16 -19 -20 -20 -19 -19 -19 -19 -8 -11 -14 1 3 -2 -1 0 -2 -2 -0 -3 -3 -4 -6 -6 -5 -7 -5 -5 -5 -5 -4 -1 2 3 5 9 10 10 12
-18 -18 -15 -11 -10 -13 -16 -16 -19 -21 -20 -19 -19 -18 -7 -14 -14 -14 2 3 1 0 -2 -5 -8 -9 -9 -8 -7 -6 -6 -5 -7 -6 -5 -5 -3 -1 1 3 7 7 9 10 11
-18 -19 -19 -18 -12 -10 -13 -17 -17 -19 -21 -20 -19 -9 -5 -12 -13 -15 -4 2 0 -1 -4 -6 -9 -10 -9 -9 -9 -9 -8 -6 -5 -8 -5 -6 -4 -6 -5 2 5 7 8 9 11
-15 -16 -19 -20 -18 -12 -10 -17 -17 -17 -19 -15 -17 -4 -9 -11 -14 -15 -11 -2 -1 -3 -6 -8 -8 -9 -10 -9 -7 -7 -9 -8 -4 -7 -6 -7 -6 -7 -6 -3 0 6 9 9 11
-17 -15 -15 -16 -21 -16 -10 -17 -6 -2 -2 -7 -8 -10 -15 -13 -15 -15 -16 -13 -8 -8 -7 -10 -8 -7 -10 -10 -10 -9 -9 -8 -8 -7 -6 -6 -6 -8 -6 -4 -3 5 9 9 11
-17 -17 -14 -14 -20 -16 -11 -6 -7 -8 -10 -11 -9 -8 -10 -11 -14 -13 -12 -14 -12 -9 -10 -9 -8 -9 -11 -11 -10 -9 -7 -7 -9 -10 -9 -9 -8 -8 -7 -4 -2 0 8 10 10
-15 -17 -17 -14 -18 -6 -9 -10 -6 -11 -10 -11 -14 -15 -11 -13 -11 -12 -12 -12 -11 -9 -8 -7 -9 -12 -12 -11 -11 -9 -8 -9 -8 -9 -10 -9 -8 -6 -7 -6 -2 -1 6 9 10
-14 -16 -18 -16 -10 -9 -9 -6 -10 -11 -7 -10 -12 -14 -16 -14 -12 -14 -14 -12 -10 -8 -7 -8 -10 -11 -12 -11 -11 -8 -12 -11 -10 -9 -8 -10 -6 1 -4 -4 -0 0 -0 7 9
-12 -15 -18 -19 -14 -12 -9 -10 -11 -9 -2 -11 -13 -14 -16 -16 -12 -13 -15 -14 -10 -9 -8 -7 -8 -10 -10 -11 -12 -11 -13 -12 -11 -9 -7 -8 -7 -5 -3 -1 2 1 1 4 9
-1 -14 -18 -15 -12 -10 -9 -11 -11 -6 -3 -10 -13 -15 -16 -16 -15 -11 -13 -14 -14 -11 -9 -8 -10 -10 -10 -11 -12 -13 -14 -13 -10 -8 -5 -5 -7 -5 -2 -1 -3 5 4 4 9
3 -6 -19 -20 -16 -10 -10 -10 -7 -4 -9 -9 -11 -13 -15 -14 -14 -13 -11 -10 -10 -6 -5 -7 -8 -10 -10 -9 -11 -12 -13 -7 -4 -4 -5 -5 -7 -4 -2 -2 -1 6 5 8 9
2 1 -14 -14 -9 -6 -8 -9 -3 -6 -7 -10 -11 -12 -12 -15 -14 -13 -11 -10 -11 -11 -9 -6 -5 -9 -9 -9 -9 -9 -10 -7 0 -3 -4 -1 -5 -4 -7 -9 -3 0 9 10 11
2 -4 -9 -6 -4 -4 -8 -6 -4 -5 -8 -8 -8 -8 -10 -14 -13 -14 -13 -10 -11 -11 -5 -6 -7 -10 -10 -10 -10 -8 -5 -10 -7 -7 -6 -5 -2 -7 -8 -8 -8 4 8 10 11
1 -5 -5 -8 -3 -6 -8 -6 -7 -8 -10 -10 -6 -8 -8 -11 -12 -12 -11 -13 -11 -11 -10 -7 -3 -10 -10 -10 -9 -9 -10 -7 -6 1 2 -4 -0 -3 2 -2 -2 5 6 10 11
-1 -7 -2 -3 -3 -4 -6 -7 -8 -10 -9 -9 -7 -7 -8 -9 -9 -8 -6 -11 -11 -14 -13 -11 -5 -6 -8 -6 -7 -8 -8 -8 -9 -5 -2 0 -2 0 1 -1 3 5 6 10 11
-4 -7 -3 -4 -4 -5 -5 -9 -11 -11 -11 -11 -10 -8 -8 -9 -7 -5 -5 -5 -5 -6 -12 -13 -12 -5 -8 -10 -9 -10 -8 -8 -4 0 -2 1 -2 -6 -4 -4 -2 -0 7 11 10
-4 -6 -12 -6 -7 -6 -7 -8 -12 -12 -12 -11 -10 -10 -9 -8 -6 -7 -8 -9 -6 -6 -1 -1 -8 -6 -5 -8 -9 -9 -10 -9 -3 0 2 2 -2 1 5 5 6 8 9 12 10
-5 -7 -9 -4 -8 -7 -5 -5 -6 -11 -12 -12 -11 -10 -9 -8 -9 -8 -9 -9 -8 -8 -9 -3 -2 4 -5 -4 -5 -2 -9 -10 -7 1 -1 -5 10 13 12 12 10 9 12 12 11
-2 -7 -6 2 -1 -2 -3 -6 -5 -4 -6 -13 -8 -10 -9 -7 -7 -7 -10 -9 -9 -9 -8 -3 5 0 -6 -9 -9 -6 -5 -8 -8 -7 -4 -2 13 12 9 10 11 11 12 12 10
-2 -4 -2 -2 -1 -0 -1 -2 -4 -4 -0 -1 -2 -5 -6 -6 -7 -5 -8 -8 -6 -5 -1 0 4 1 -0 -4 -4 -6 -6 -5 -6 -10 -10 -7 10 8 8 8 9 9 12 12 12
-5 -5 -7 -6 -3 -1 -0 -0 -4 -3 -3 -2 -1 -3 -3 -7 -5 -7 -11 -10 -9 -2 2 5 4 4 4 4 4 0 -5 3 -6 -5 -1 3 11 12 13 13 12 12 12 11 10

GFSSW_850_dewp_075.txt.gz
Dewpoint
-16 -16 -17 -17 -17 -18 -18 -18 -18 -18 -19 -19 -19 -19 -20 -20 -21 -21 -21 -17 -8 -6 -3 -4 -1 6 10 10 9 9 11 7 0 -3 -3 2 3 7 8 8 7 9 11 13 14
-16 -17 -17 -17 -17 -18 -18 -18 -18 -19 -19 -19 -19 -19 -20 -20 -21 -20 -21 -14 -8 -8 -7 -7 1 8 8 6 5 4 3 3 -2 -6 -6 -6 -3 6 10 9 7 12 12 13 14
-16 -17 -17 -18 -18 -18 -18 -18 -18 -19 -19 -19 -19 -20 -20 -20 -19 1 -4 -9 -9 -7 -13 -9 6 6 6 2 3 3 -0 -2 -3 -5 -6 -5 -3 7 10 11 8 12 12 13 13
-14 -14 -15 -16 -17 -18 -19 -19 -19 -19 -19 -19 -19 -19 -20 -20 -5 0 -1 -4 -5 -7 -13 -8 5 5 5 3 1 2 -3 -3 -4 -4 -4 -3 -3 1 5 7 10 11 12 13 13
-11 -11 -12 -14 -15 -16 -17 -19 -20 -19 -19 -19 -19 -19 -19 -17 -12 -13 -1 -7 -5 -4 -13 -3 5 5 5 1 -1 -3 -4 -6 -5 -5 -4 -4 -3 -1 4 8 10 11 12 13 13
-13 -13 -12 -10 -10 -13 -16 -17 -18 -20 -20 -19 -19 -19 -19 -6 -18 -6 -7 -8 -8 -7 -13 2 6 4 3 -1 -2 -5 -6 -6 -6 -7 -5 -3 -3 1 3 9 11 12 12 12 13
-13 -13 -12 -12 -10 -8 -10 -15 -17 -17 -20 -20 -20 -19 -17 -20 -17 -0 -1 -8 -4 -4 -2 2 0 0 -0 -2 -4 -6 -6 -7 -6 -7 -6 -5 -3 2 1 9 11 12 12 12 12
-14 -13 -13 -12 -10 -8 -7 -7 -14 -18 -17 -20 -21 -19 -16 -20 -19 -14 -6 -2 0 -0 -1 -2 -3 -4 -9 -10 -9 -8 -7 -5 -7 -7 -8 -6 -2 1 2 4 11 11 11 12 12
-16 -14 -11 -11 -13 -11 -6 -5 -8 -15 -18 -18 -21 -14 -5 -11 -11 -15 -14 -4 3 1 0 -0 -4 -6 -9 -7 -6 -7 -6 -6 -8 -10 -7 -4 -3 -4 1 5 8 10 10 11 12
-17 -17 -15 -11 -12 -14 -10 -5 -9 -9 -12 -11 -17 -4 -11 -14 -8 -12 -15 -9 0 1 -0 -2 -7 -6 -7 -7 -4 -5 -6 -8 -7 -7 -6 -4 -4 -6 -6 5 8 9 10 11 12
-17 -18 -18 -16 -11 -15 -12 -8 -8 -4 -6 -3 -3 -12 -13 -12 -11 -12 -14 -13 -6 0 -0 -3 -5 -4 -6 -8 -9 -8 -8 -7 -6 -7 -8 -6 -4 -6 -7 -4 5 9 10 12 13
-7 -15 -18 -19 -11 -12 -7 -6 -10 -6 -8 -11 -11 -11 -10 -8 -9 -9 -14 -15 -10 -4 -5 -5 -4 -7 -8 -8 -8 -8 -7 -5 -6 -8 -9 -8 -7 -8 -6 -7 -3 9 10 12 15
3 -3 -16 -19 -14 -7 -6 -8 -9 -10 -10 -11 -11 -11 -12 -13 -12 -9 -13 -13 -13 -8 -8 -6 -7 -9 -8 -8 -8 -10 -8 -6 -6 -9 -9 -7 -4 -5 -7 -8 -3 9 9 11 15
3 2 -6 -18 -14 -11 -12 -9 -10 -11 -6 -8 -9 -11 -11 -13 -15 -12 -11 -12 -11 -11 -9 -9 -9 -8 -8 -8 -10 -8 -9 -8 -8 -8 -4 -7 -2 -4 -3 -6 1 2 10 10 15
3 3 2 -9 -18 -16 -10 -10 -11 -11 -0 -9 -12 -13 -14 -13 -14 -15 -13 -12 -11 -9 -9 -7 -7 -6 -6 -8 -10 -9 -10 -10 -9 -9 -5 -5 -4 -3 -1 -2 2 2 8 11 15
3 2 3 0 -17 -10 -9 -10 -10 -5 -0 -8 -11 -11 -12 -13 -14 -15 -15 -12 -13 -13 -10 -8 -9 -8 -8 -9 -10 -10 -11 -9 -10 -10 -3 -3 -2 -5 -4 -2 5 3 3 12 16
3 1 2 1 -16 -17 -12 -9 -4 -2 -7 -8 -9 -10 -9 -10 -13 -15 -15 -12 -10 -9 -9 -10 -9 -9 -9 -7 -8 -9 -7 -5 -3 -2 -1 -6 -4 -5 -2 3 6 5 8 12 17
2 1 1 -11 -11 -12 -6 -4 -1 -4 -6 -9 -9 -9 -6 -9 -12 -14 -13 -11 -11 -10 -8 -7 -6 -8 -10 -7 -5 -7 -6 -3 -2 2 -1 -4 0 -3 -2 -2 5 4 7 12 17
2 -0 -7 -14 -7 -4 -5 -2 -3 -3 -7 -7 -8 -6 -5 -7 -8 -10 -9 -11 -11 -11 -7 -7 -6 -8 -9 -9 -9 -4 -5 -7 -5 -5 -3 -5 -3 -1 -0 4 7 10 9 11 16
1 -1 -6 -6 -6 -5 -3 -3 -5 -8 -8 -8 -5 -6 -4 -6 -6 -5 -4 -6 -4 -9 -8 -9 -4 -8 -9 -10 -10 -8 -6 -5 -3 -1 2 0 2 4 2 5 11 12 11 11 15
1 -1 -6 -4 -3 -3 -1 -4 -6 -9 -10 -8 -7 -6 -7 -5 -5 -6 -4 -6 -6 -5 -5 -3 -6 -5 -8 -7 -6 -5 -5 -6 -5 -2 -1 2 1 2 -0 2 8 10 12 11 13
-3 -1 -3 -3 -2 -3 -1 -3 -7 -9 -11 -10 -9 -8 -6 -6 -5 -5 -5 -6 -6 -7 -4 -1 -0 -4 -7 -9 -8 -7 -6 -6 -0 -1 1 0 -0 10 0 3 8 9 3 9 12
-3 -3 -7 -6 -3 -6 -7 -6 -7 -7 -11 -11 -10 -10 -8 -5 -3 -3 -5 -9 -9 -7 -1 -0 2 3 -3 -6 -10 -7 -7 -3 -1 -1 -3 2 5 11 11 11 12 12 9 11 12
-4 -1 -5 -8 -4 -2 -3 -3 -4 -7 -6 -5 -8 -9 -7 -5 -5 -2 -4 -8 -9 -9 -6 -3 2 6 5 3 -1 -4 -2 -3 -4 2 -3 -1 9 13 12 12 14 15 13 15 9
-2 -1 -4 0 -2 -1 1 1 -1 -2 -6 -1 2 -4 -5 -4 -3 -4 -6 -6 -7 -9 -2 2 4 5 2 -1 -3 -2 -2 -3 -3 -2 2 -0 13 11 9 9 16 14 9 12 13
-2 -4 -4 -5 -5 -2 0 2 1 -3 -2 1 1 0 -0 2 -0 -0 -5 -4 -3 -4 -1 5 7 8 7 1 3 1 2 1 4 7 5 7 12 8 8 12 13 11 12 15 15
0 -3 -3 -6 -6 -4 -0 3 2 1 -2 -2 -1 -0 1 0 -0 1 -2 -3 -5 -4 3 7 7 8 8 6 4 4 12 11 12 11 13 15 15 13 14 14 14 14 15 16 16